Regional Weather Roundup
Issued by NWS

Home | Current Version | Previous Version | Text Only | Print | Product List | Glossary Off
Versions: 1 2 3 4 5 6 7 8 9 10 11 12 13 14 15 16 17 18 19 20 21 22 23 24 25 26 27 28 29 30 31 32 33 34 35 36 37 38 39 40 41 42 43 44 45 46 47 48 49 50

000
ASUS43 KFSD 130102
RWRSD

WEATHER ROUNDUP FOR SOUTH DAKOTA
NATIONAL WEATHER SERVICE SIOUX FALLS SD
800 PM CDT SAT JUL 12 2014

NOTE: "FAIR" INDICATES FEW OR NO CLOUDS BELOW 12,000 FEET WITH NO
SIGNIFICANT WEATHER AND/OR OBSTRUCTIONS TO VISIBILITY.


SDZ001>005-009-010-012>017-130200-
NORTHWEST AND NORTH CENTRAL SOUTH DAKOTA

CITY           SKY/WX    TMP DP  RH WIND       PRES   REMARKS
BUFFALO          N/A     80  54  40 N13       30.08S
FAITH            N/A     80  61  52 NW8       30.10F
MOBRIDGE       MOSUNNY   79  66  64 W6        30.01S
$$

SDZ012>016-024>037-041>051-057-063-072>074-130200-
SOUTHWEST AND SOUTH CENTRAL SOUTH DAKOTA

CITY           SKY/WX    TMP DP  RH WIND       PRES   REMARKS
RAPID CTY ARPT PTSUNNY   79  62  56 N5        30.16R
PIERRE         SUNNY     78  64  61 NW6       30.04F
CUSTER         SUNNY     68  59  73 E6        30.30R
PHILIP         SUNNY     83  62  49 N6        30.08F
PINE RIDGE     PTSUNNY   72  65  78 NW8       30.17R
WINNER         FAIR      81  63  54 N10       30.07R
$$

SDZ004>011-016>023-039-040-130200-
NORTHEAST SOUTH DAKOTA

CITY           SKY/WX    TMP DP  RH WIND       PRES   REMARKS
ABERDEEN       SUNNY     79  61  53 W10       29.99S
WATERTOWN      SUNNY     75  62  64 W9        30.02S
SISSETON         N/A     78  64  61 W6        29.95S
$$

SDZ017-020-022-023-036>040-048>070-130200-
SOUTHEAST SOUTH DAKOTA

CITY           SKY/WX    TMP DP  RH WIND       PRES   REMARKS
SIOUX FALLS    MOSUNNY   78  66  66 N7        30.01S
HURON          PTSUNNY   80  65  59 N5        30.01F
CHAMBERLAIN    PTSUNNY   80  63  56 N9        30.05S
MITCHELL       SUNNY     80  66  62 N7        30.03S
YANKTON        MOSUNNY   79  68  69 N3        30.02S
$$

ABBREVIATIONS USED IN REMARKS
   TC - TEMPERATURE IN CELSIUS
  WCI - WIND CHILL INDEX
   HX - HEAT INDEX
  VSB - VISIBILITY




USA.gov is the U.S. government's official web portal to all federal, state and local government web resources and services.